When you browse on this site, cookies collect data to enhance your experience and personalize the content and advertising you see.
Visit our Privacy Policy to learn more. By continuing to use the site, you agree to this use of cookies and data.
  • In Hungary
  • List of Countries
  • For 7 days
  • Water Temperature
  • Satellite Maps
  • Weather Map
  • News
  • Weather Widgets
  • user-avatar
    Login

    Hourly Weather Kinshasa

    Today, 20 November, Tuesday

    Time Temperature Precipitation Wind Pressure Humidity
    00:00 +22°C° 0 mm 0 mps 706 mmHg 68%
    01:00 +22°C° 0 mm 0 mps 706 mmHg 72%
    02:00 +22°C° 0 mm 0 mps 706 mmHg 73%
    03:00 +21°C° 0 mm 0 mps 706 mmHg 74%
    04:00 +21°C° 0 mm 0 mps 706 mmHg 76%
    05:00 +21°C° 0 mm 0 mps 706 mmHg 76%
    06:00 +24°C° 0 mm 1 mps 707 mmHg 75%
    07:00 +24°C° 0 mm 1 mps 707 mmHg 75%
    08:00 +27°C° 0 mm 1 mps 708 mmHg 66%
    09:00 +30°C° 0 mm 1 mps 708 mmHg 57%
    10:00 +33°C° 0 mm 1 mps 708 mmHg 49%
    11:00 +34°C° 0 mm 1 mps 708 mmHg 44%
    12:00 +36°C° 0 mm 1 mps 708 mmHg 39%
    13:00 +37°C° 0 mm 1 mps 707 mmHg 34%
    14:00 +36°C° 0 mm 1 mps 706 mmHg 36%
    15:00 +35°C° 0 mm 1 mps 706 mmHg 38%
    16:00 +35°C° 0 mm 1 mps 705 mmHg 39%
    17:00 +32°C° 0 mm 1 mps 705 mmHg 45%
    18:00 +30°C° 0 mm 1 mps 705 mmHg 50%
    19:00 +28°C° 0 mm 1 mps 706 mmHg 55%
    20:00 +27°C° 0 mm 1 mps 706 mmHg 57%
    21:00 +27°C° 0 mm 1 mps 707 mmHg 58%
    22:00 +25°C° 0 mm 0 mps 707 mmHg 59%
    23:00 +24°C° 0 mm 0 mps 707 mmHg 60%

    Tomorrow, 21 November, Wednesday

    Time Temperature Precipitation Wind Pressure Humidity
    00:00 +24°C° 0 mm 0 mps 707 mmHg 60%
    01:00 +24°C° 0 mm 0 mps 707 mmHg 61%
    02:00 +23°C° 0 mm 0 mps 706 mmHg 63%
    03:00 +25°C° 0 mm 1 mps 706 mmHg 66%
    04:00 +24°C° 0 mm 1 mps 706 mmHg 68%
    05:00 +24°C° 0 mm 1 mps 706 mmHg 68%
    06:00 +25°C° 0 mm 1 mps 707 mmHg 69%
    07:00 +25°C° 0 mm 1 mps 707 mmHg 70%
    08:00 +27°C° 0 mm 2 mps 708 mmHg 63%
    09:00 +30°C° 0 mm 2 mps 708 mmHg 57%
    10:00 +32°C° 0 mm 2 mps 708 mmHg 50%
    11:00 +34°C° 0 mm 1 mps 708 mmHg 44%
    12:00 +36°C° 0 mm 1 mps 707 mmHg 39%
    13:00 +39°C° 0 mm 1 mps 706 mmHg 33%
    14:00 +37°C° 0 mm 1 mps 706 mmHg 35%
    15:00 +36°C° 0 mm 1 mps 705 mmHg 36%
    16:00 +35°C° 0 mm 1 mps 705 mmHg 37%
    17:00 +33°C° 0 mm 1 mps 705 mmHg 43%
    18:00 +31°C° 0 mm 1 mps 705 mmHg 49%
    19:00 +28°C° 0 mm 1 mps 705 mmHg 54%
    20:00 +27°C° 0 mm 1 mps 706 mmHg 61%
    21:00 +27°C° 0 mm 1 mps 706 mmHg 68%
    22:00 +26°C° 0 mm 1 mps 706 mmHg 74%
    23:00 +25°C° 0 mm 1 mps 706 mmHg 79%

    Day after tomorrow, 22 November, Thursday

    Time Temperature Precipitation Wind Pressure Humidity
    00:00 +25°C° 0 mm 1 mps 706 mmHg 84%
    01:00 +24°C° 0 mm 1 mps 706 mmHg 89%
    02:00 +24°C° 0 mm 1 mps 706 mmHg 90%
    03:00 +24°C° 0 mm 1 mps 706 mmHg 91%
    04:00 +23°C° 0 mm 1 mps 706 mmHg 92%
    05:00 +24°C° 0 mm 2 mps 707 mmHg 90%
    06:00 +24°C° 0 mm 2 mps 707 mmHg 87%
    07:00 +25°C° 0 mm 2 mps 708 mmHg 84%
    08:00 +27°C° 0 mm 2 mps 708 mmHg 76%
    09:00 +29°C° 0 mm 2 mps 708 mmHg 67%
    10:00 +31°C° 0 mm 2 mps 709 mmHg 59%
    11:00 +34°C° 0 mm 2 mps 708 mmHg 52%
    12:00 +35°C° 0 mm 1 mps 707 mmHg 45%
    13:00 +36°C° 0 mm 1 mps 706 mmHg 38%
    14:00 +35°C° 0 mm 1 mps 706 mmHg 40%
    15:00 +32°C° 0 mm 0 mps 705 mmHg 43%
    16:00 +31°C° 0 mm 0 mps 704 mmHg 46%
    17:00 +30°C° 0 mm 0 mps 705 mmHg 50%
    18:00 +30°C° 0 mm 1 mps 705 mmHg 54%
    19:00 +28°C° 0 mm 1 mps 706 mmHg 58%
    20:00 +27°C° 0 mm 1 mps 706 mmHg 63%
    21:00 +26°C° 0 mm 1 mps 707 mmHg 69%
    22:00 +25°C° 0 mm 1 mps 707 mmHg 75%
    23:00 +25°C° 0.2 mm 1 mps 707 mmHg 79%

    23 November, Friday

    Time Temperature Precipitation Wind Pressure Humidity
    00:00 +24°C° 0.2 mm 1 mps 707 mmHg 84%
    01:00 +24°C° 0.2 mm 1 mps 706 mmHg 89%
    02:00 +23°C° 0 mm 1 mps 706 mmHg 91%
    03:00 +23°C° 0 mm 1 mps 706 mmHg 93%
    04:00 +23°C° 0 mm 1 mps 706 mmHg 95%
    05:00 +23°C° 0 mm 1 mps 707 mmHg 92%
    06:00 +24°C° 0 mm 2 mps 708 mmHg 89%
    07:00 +24°C° 0 mm 2 mps 708 mmHg 87%
    08:00 +27°C° 0 mm 2 mps 708 mmHg 76%
    09:00 +29°C° 0 mm 2 mps 708 mmHg 66%
    10:00 +31°C° 0 mm 2 mps 709 mmHg 56%
    11:00 +33°C° 0 mm 1 mps 708 mmHg 50%
    12:00 +35°C° 0 mm 1 mps 707 mmHg 44%
    13:00 +37°C° 0 mm 1 mps 706 mmHg 37%
    14:00 +34°C° 0 mm 0 mps 706 mmHg 39%
    15:00 +33°C° 0 mm 0 mps 706 mmHg 41%
    16:00 +32°C° 0 mm 0 mps 705 mmHg 43%
    17:00 +30°C° 0 mm 0 mps 705 mmHg 48%
    18:00 +28°C° 0 mm 0 mps 706 mmHg 53%
    19:00 +26°C° 0 mm 0 mps 706 mmHg 58%
    20:00 +28°C° 0 mm 1 mps 706 mmHg 61%
    21:00 +27°C° 0 mm 1 mps 706 mmHg 63%
    22:00 +27°C° 0 mm 1 mps 707 mmHg 66%
    23:00 +26°C° 0 mm 1 mps 706 mmHg 69%

    24 November, Saturday

    Time Temperature Precipitation Wind Pressure Humidity
    00:00 +26°C° 0 mm 1 mps 706 mmHg 72%
    01:00 +25°C° 0 mm 1 mps 706 mmHg 75%
    02:00 +25°C° 0 mm 1 mps 705 mmHg 77%
    03:00 +24°C° 0 mm 1 mps 705 mmHg 78%
    04:00 +24°C° 0 mm 1 mps 705 mmHg 80%
    05:00 +24°C° 0 mm 1 mps 706 mmHg 78%
    06:00 +25°C° 0 mm 1 mps 706 mmHg 77%
    07:00 +26°C° 0 mm 1 mps 707 mmHg 75%
    08:00 +28°C° 0 mm 1 mps 707 mmHg 66%
    09:00 +31°C° 0 mm 1 mps 708 mmHg 57%
    10:00 +34°C° 0 mm 1 mps 708 mmHg 47%
    11:00 +35°C° 0 mm 1 mps 707 mmHg 43%
    12:00 +36°C° 0 mm 1 mps 707 mmHg 38%
    13:00 +39°C° 0 mm 1 mps 706 mmHg 33%
    14:00 +37°C° 0 mm 1 mps 705 mmHg 36%
    15:00 +35°C° 0 mm 1 mps 705 mmHg 39%
    16:00 +34°C° 0 mm 1 mps 705 mmHg 43%
    17:00 +32°C° 0 mm 1 mps 705 mmHg 48%
    18:00 +31°C° 0 mm 1 mps 705 mmHg 53%
    19:00 +29°C° 0 mm 1 mps 705 mmHg 59%
    20:00 +28°C° 0 mm 1 mps 706 mmHg 61%
    21:00 +28°C° 0 mm 1 mps 706 mmHg 64%
    22:00 +27°C° 0 mm 1 mps 706 mmHg 67%
    23:00 +26°C° 0 mm 1 mps 706 mmHg 69%

    25 November, Sunday

    Time Temperature Precipitation Wind Pressure Humidity
    00:00 +24°C° 0 mm 0 mps 706 mmHg 72%
    01:00 +24°C° 0 mm 0 mps 706 mmHg 75%
    02:00 +25°C° 0.1 mm 1 mps 706 mmHg 77%
    03:00 +25°C° 0.1 mm 1 mps 705 mmHg 80%
    04:00 +24°C° 0.1 mm 1 mps 705 mmHg 82%
    05:00 +25°C° 0.1 mm 1 mps 706 mmHg 83%
    06:00 +25°C° 0.1 mm 1 mps 706 mmHg 84%
    07:00 +25°C° 0.1 mm 2 mps 707 mmHg 85%
    08:00 +27°C° 0 mm 2 mps 707 mmHg 76%
    09:00 +30°C° 0 mm 2 mps 707 mmHg 66%
    10:00 +32°C° 0 mm 2 mps 708 mmHg 57%
    11:00 +34°C° 0 mm 1 mps 707 mmHg 50%
    12:00 +34°C° 0 mm 0 mps 706 mmHg 44%
    13:00 +37°C° 0 mm 0 mps 706 mmHg 37%
    14:00 +35°C° 0 mm 0 mps 705 mmHg 40%
    15:00 +33°C° 0 mm 0 mps 704 mmHg 44%
    16:00 +32°C° 0 mm 0 mps 704 mmHg 47%
    17:00 +30°C° 0 mm 0 mps 704 mmHg 52%
    18:00 +31°C° 0 mm 1 mps 704 mmHg 56%
    19:00 +29°C° 0 mm 1 mps 705 mmHg 61%
    20:00 +28°C° 0 mm 1 mps 705 mmHg 66%
    21:00 +27°C° 0 mm 1 mps 705 mmHg 70%
    22:00 +26°C° 0 mm 1 mps 705 mmHg 75%
    23:00 +26°C° 0 mm 1 mps 705 mmHg 79%
    Show more